#timestamp,LO_Frequency,Hit 
1506214815.1,286047003.3,N
1506214816.0,286047003.3,N
1506214835.8,286047002.5,N
1506214855.6,286047004.2,N
1506214875.5,286047004.6,N
1506214895.3,286047006.3,N
1506214915.1,286047005.2,N
1506214935.9,286047009.0,N
1506214955.7,286047007.8,N
1506214975.5,286047010.7,N
1506214995.4,286047010.0,N
1506215015.2,286047009.1,N
1506215035.0,286047004.8,N
1506215035.9,286047004.8,N
1506215055.8,286047004.2,N
1506215075.6,286047002.6,N
1506215095.4,286047005.6,N
1506215115.2,286047003.5,N
1506215135.1,286047002.1,N
1506215136.0,286047002.1,N
1506215155.8,286047001.0,N
1506215175.6,286046998.3,N
1506215195.5,286047002.6,N
1506215215.3,286047001.2,N
1506215235.1,286047000.4,N
1506215255.9,286047001.4,N
1506215275.7,286047001.0,N
1506215295.5,286046999.6,N
1506215315.4,286047000.5,N
1506215335.2,286047003.7,N
1506215355.0,286047002.0,N
1506215355.9,286047002.0,N
1506215375.8,286047003.9,N
1506215395.6,286047003.1,N
1506215415.4,286047006.4,N
1506215435.3,286047003.3,N
1506215455.1,286047005.9,N
1506215456.0,286047005.9,N
1506215475.8,286047002.2,N
1506215495.6,286047000.2,N
1506215515.5,286047005.3,N
1506215535.3,286047001.2,N
1506215555.1,286046995.6,N
1506215575.9,286046997.3,N
1506215595.7,286046995.4,N
1506215615.5,286046996.1,N
1506215635.4,286046999.5,N
1506215655.2,286046996.5,N
1506215675.0,286046998.1,N
1506215675.9,286046998.1,N
1506215695.8,286047001.0,N
1506215715.6,286046996.2,N
1506215735.4,286046993.3,N
1506215755.3,286046994.6,N
1506215775.1,286047001.1,N
1506215776.0,286047001.1,N
1506215795.8,286046995.7,N
1506215815.7,286046995.3,N
1506215835.5,286046995.9,N
1506215855.3,286046993.2,N
1506215875.1,286046991.5,N
1506215895.9,286046990.6,N
1506215915.7,286046991.7,N
1506215935.5,286046991.9,N
1506215955.4,286046990.2,N
1506215975.2,286046989.6,N
1506215995.0,286046988.6,N
1506215995.9,286046988.6,N
1506216015.8,286046988.7,N
1506216035.6,286046993.2,N
1506216055.4,286046997.3,N
1506216075.3,286046995.2,N
1506216095.1,286046994.4,N
1506216096.0,286046994.4,N
1506216115.8,286046997.6,N
1506216135.7,286046995.5,N
1506216155.5,286046992.2,N
1506216175.3,286046994.8,N
1506216195.2,286046994.2,N
1506216215.9,286046994.8,N
1506216235.7,286046994.8,N
1506216255.5,286046994.0,N
1506216275.4,286046992.2,N
1506216295.2,286046993.8,N
1506216315.0,286046994.7,N
1506216315.9,286046994.7,N
1506216335.8,286046994.6,N
1506216355.6,286046994.3,N
1506216375.4,286046994.4,N
1506216395.3,286046995.2,N
1506216415.1,286046995.8,N
1506216416.0,286046995.8,N
1506216435.8,286046998.0,N
1506216455.7,286046995.0,N
1506216475.5,286046995.0,N
1506216495.3,286046997.7,N
1506216515.2,286046995.3,N
1506216535.9,286046995.2,N
1506216555.7,286046995.9,N
1506216575.6,286046995.0,P
1506216595.4,286047003.4,P
1506216615.2,286047004.4,N
1506216635.1,286047000.9,N
1506216636.0,286047000.9,N
1506216655.8,286047003.4,N
1506216675.6,286047003.5,N
1506216695.5,286047004.4,N
1506216715.3,286047001.5,N
1506216735.1,286046999.8,N
1506216755.9,286047000.7,N
1506216775.7,286047001.8,N
1506216795.5,286047001.6,N
1506216815.3,286047000.1,N
1506216835.2,286047002.6,N
1506216855.9,286047000.1,N
1506216875.7,286046999.7,N
1506216895.6,286047001.6,N
1506216915.4,286046998.5,N
1506216935.2,286047007.6,N
1506216955.1,286047003.6,N
1506216956.0,286047003.6,N
1506216975.8,286047001.5,N
1506216995.6,286046998.8,N
1506217015.5,286046997.0,N
1506217035.3,286046999.6,N
1506217055.1,286047000.8,N
1506217075.8,286047004.2,N
1506217095.7,286047000.3,N
1506217115.5,286047004.5,N
1506217135.3,286047006.5,N
1506217155.2,286047004.9,N
1506217175.9,286047006.9,N
1506217195.7,286047003.2,N
1506217215.6,286047004.0,N
1506217235.4,286047004.2,N
1506217255.2,286047005.7,N
1506217275.1,286047001.5,N
1506217276.0,286047001.5,N
1506217295.8,286047001.3,N
1506217315.6,286047000.1,N
1506217335.5,286047003.2,N
1506217355.3,286047002.3,N
1506217375.1,286047000.3,N
1506217395.8,286047004.2,N
1506217415.7,286047005.2,N
1506217435.5,286047003.9,N
1506217455.3,286047004.1,N
1506217475.2,286046999.9,N
1506217495.0,286047003.7,N
1506217495.9,286047003.7,N
1506217515.7,286047000.0,N
1506217535.6,286046999.9,N
1506217555.4,286047000.4,N
1506217575.2,286047002.7,N
1506217595.1,286047000.6,N
1506217596.0,286047000.6,N
1506217615.8,286047000.7,N
1506217635.6,286046999.9,N
1506217655.5,286046999.7,N
1506217675.3,286047001.9,N
1506217695.1,286047001.6,N
1506217715.9,286047004.3,N
1506217735.7,286047001.5,N
1506217755.5,286047002.1,N
1506217775.4,286047005.6,P
1506217795.2,286047003.1,N
1506217815.0,286047005.5,P
1506217815.9,286047005.5,P
1506217835.8,286046998.2,N
1506217855.6,286047000.9,N
1506217875.4,286046998.1,N
1506217895.3,286047001.0,N
1506217915.1,286047001.1,N
1506217916.0,286047001.1,N
1506217935.8,286046999.9,N
1506217955.7,286047001.9,N
1506217975.5,286047001.4,N
1506217995.3,286047004.2,N
1506218015.2,286046999.8,N
1506218035.9,286046998.1,N
1506218055.7,286046996.5,N
1506218075.5,286046999.3,N
1506218095.4,286046996.8,N
1506218115.2,286046995.0,N
1506218135.0,286046997.0,N
1506218135.9,286046997.0,N
1506218155.8,286046998.8,N
1506218175.6,286046998.9,N
1506218195.4,286047000.5,N
1506218215.3,286047007.2,N
1506218235.1,286047007.0,N
1506218236.0,286047007.0,N
1506218255.8,286047004.3,N
1506218275.7,286047004.0,N
1506218295.5,286047000.6,N
1506218315.3,286047000.9,N
1506218335.1,286047001.0,N
1506218355.9,286046999.9,N
1506218375.7,286047000.4,N
1506218395.5,286047001.8,N
